Regional Weather Roundup
Issued by NWS Newport/Morehead, NC

Current Version | Previous Version | Text Only | Print | Product List | Glossary Off
Versions: 1 2 3 4 5 6 7 8 9 10 11 12 13 14 15 16 17 18 19 20 21 22 23 24 25 26 27 28 29 30 31 32 33 34 35 36 37 38 39 40 41 42 43 44 45 46 47 48 49 50
000 ASUS42 KMHX 291325 RWRMHX WEATHER ROUNDUP FOR EASTERN NORTH CAROLINA NATIONAL WEATHER SERVICE NEWPORT/MOREHEAD CITY NC 900 AM EDT SAT APR 29 2017 NOTE: "FAIR" INDICATES FEW OR NO CLOUDS BELOW 12,000 FEET WITH NO SIGNIFICANT WEATHER AND/OR OBSTRUCTIONS TO VISIBILITY NCZ015>017-031-032-045>047-102-103-291400- NORTH COAST CITY SKY/WX TMP DP RH WIND PRES REMARKS EDENTON CLOUDY 78 72 81 SW9 30.22S ELIZABETH CITY PTSUNNY 77 73 87 SW13 30.20R KITTY HAWK CLOUDY 76 70 81 W7 30.21R MANTEO CLOUDY 76 70 82 W13G23 30.22R $$ NCZ045>047-081-094-103-104-291400- CENTRAL COAST CITY SKY/WX TMP DP RH WIND PRES REMARKS FRISCO SUNNY 75 71 87 SW12 30.23R FOG $$ NCZ095-097-098-100-101-291400- SOUTHERN COAST CITY SKY/WX TMP DP RH WIND PRES REMARKS BEAUFORT SUNNY 76 75 97 SW14 30.24S CEDAR ISLAND NOT AVBL JACKSONVILLE MOSUNNY 78 73 84 SW9 30.23S PINEY ISLAND PTSUNNY N/A N/A N/A SW16G25 30.23R WILMINGTON MOSUNNY 79 72 79 S13 30.23F $$ NCZ011>013-027>030-043-044-078>080-089-090>093-098-291400- COASTAL PLAIN CITY SKY/WX TMP DP RH WIND PRES REMARKS AHOSKIE N/A 78 72 82 S3 30.19S CLINTON PTSUNNY 76 72 88 SW8 30.23F ELIZABETHTOWN MOSUNNY 77 73 86 S6 30.23S GOLDSBORO PTSUNNY 77 75 94 SW13 30.20S GREENVILLE MOSUNNY 77 72 83 SW8G17 30.21F HAVELOCK MOSUNNY 78 71 79 SW15 30.24 KENANSVILLE PTSUNNY 77 70 78 SW7 30.23S KINSTON PTSUNNY 79 70 73 SW14G22 30.22 NEW BERN MOSUNNY 78 72 81 SW10 30.24S RICHLANDS CLOUDY 77 72 84 SW13 30.24S ROCKY MOUNT CLOUDY 77 73 87 SW10 30.21R WASHINGTON MOSUNNY 77 70 79 SW8 30.22S WHITEVILLE PTSUNNY 77 72 84 SW8 30.23S $$ AMZ130-135-150-152-154-156-158-170-250-252-270-ANZ085-086-088-633-658-670-291400- MARINE OBSERVATIONS STATION/POSITION TIME TEMP WIND PRES WAVE SWELL AIR SEA DIR/SP/G HT/PER HT/PER (UTC) (F) (DEG/KT/KT) (MB) (FT/S) (FT/S) CHESAPEAKE LIGHT NOT AVBL 64 E VA BEACH 1250 61 57 220/ 10/ 10 1022.9 3/ 8 3/ 8 DUCK 1300 75 57 230/ 15/ 20 1022.3 2 E DUCK 1300 58 N/A 2/ 8 OREGON INLET 1300 74 75 230/ 13/ 15 1023.0 13E OREGON INLT 1248 62 N/A 3/ 5 2/ 7 HATTERAS CG 1300 75 71 210/ 10/ 14 1023.2 DIAMOND BUOY 1250 77 76 230/ 12/ 14 1023.6 4/ 5 2/ 7 CAPE LOOKOUT 1300 75 220/ 9/ 13 1023.7 BEAUFORT LAB 1300 75 71 210/ 8/ 10 1023.3 30 SE NEW RVR IN 1308 73 210/ 6/ 8 1024.2 30 SE NEW RVR IN 1313 72 N/A 4/ 5 27 SE WRIGHTSVLE 1308 74 73 190/ 4/ 6 1023.6 5 SE WRIGHTSVLE 1308 72 70 180/ 6/ 8 1023.8 225 S CAPE HAT 1250 74 75 170/ 8/ 10 1025.6 3/ 7 3/ 7 41 SE CHARLESTON 1300 75 74 170/ 6/ 8 1023.8 $$

USA.gov is the U.S. government's official web portal to all federal, state and local government web resources and services.